Location: Strawberry
(45.6646°N, 111.9596°W)
Time: 22:59:22
(UTC+00:00)

Courier 1B Rocket - Pass Details

Date: 14 October 2022
Orbit: 920 x 1202 km, 28.3° (Epoch: 03 December)

Event Time Altitude Azimuth Distance (km) Brightness Sun altitude
Rises 22:44:49 0° 234° (SW) 4,079 10.0 18.3°
Reaches altitude 10° 22:48:35 10° 219° (SW) 3,093 9.3 17.7°
Maximum altitude 22:53:43 20° 176° (S) 2,406 7.6 17.0°
Drops below altitude 10° 22:58:43 10° 133° (SE) 2,986 7.4 16.2°
Sets 23:02:15 0° 117° (ESE) 3,893 7.8 15.7°
